Regional Weather Roundup
Issued by NWS Northern Indiana

Home | Current Version | Previous Version | Graphics & Text | Print | Product List | Glossary On
Versions: 1 2 3 4 5 6 7 8 9 10 11 12 13 14 15 16 17 18 19 20 21 22 23 24 25 26 27 28 29 30 31 32 33 34 35 36 37 38 39 40 41 42 43 44 45 46 47 48 49 50
000
ASUS43 KIWX 160510
RWRIWX

KIWX WEATHER ROUNDUP
NATIONAL WEATHER SERVICE NORTHERN INDIANA
100 AM EDT WED APR 16 2014

NOTE: "FAIR" INDICATES FEW OR NO CLOUDS BELOW 12,000 FEET WITH NO
SIGNIFICANT WEATHER AND/OR OBSTRUCTIONS TO VISIBILITY.

* THESE STATIONS ARE NOT UNDER NWS QUALITY CONTROL. THEY ALSO MAY NOT
  REPORT WEATHER SUCH AS PRECIPITATION OR FOG.

INZ001>027-160600-
NORTHERN INDIANA

CITY           SKY/WX    TMP DP  RH WIND       PRES   REMARKS
GARY*          CLEAR     32  23  69 SE5       30.23R WCI  27
VALPARAISO     CLEAR     23  18  81 NE5       30.22S WCI  17
MICHIGAN CITY* CLEAR     28  16  59 SE3       30.23S
LAPORTE*       PTCLDY    25  17  73 SE3       30.23S
SOUTH BEND     CLEAR     29  14  53 SE5       30.24R WCI  24
GOSHEN         CLEAR     25  17  72 CALM      30.24R
MONTICELLO*    CLEAR     31  18  57 CALM      30.22F
LOGANSPORT*    CLEAR     27  21  80 E5        30.24S WCI  21
ROCHESTER*     CLEAR     28  19  69 SE6       30.24S WCI  22
WARSAW*        CLEAR     27  18  69 CALM      30.24S
ANGOLA*        CLEAR     23  16  74 CALM      30.24R
FORT WAYNE     CLEAR     26  16  65 CALM      30.26R
HUNTINGTON*    FAIR      26  16  66 CALM      30.25R
PERU/GRISSOM   CLEAR     28  20  74 SE6       30.23S WCI  21
MARION*        CLEAR     26  18  70 SE5       30.25S WCI  21

$$
INZ028>050-160600-
CENTRAL INDIANA

CITY           SKY/WX    TMP DP  RH WIND       PRES   REMARKS
LAFAYETTE      CLEAR     29  18  63 SE3       30.24R
KOKOMO*        CLEAR     28  18  64 SE8       30.23F WCI  20
MUNCIE*        CLEAR     25  18  74 SE3       30.24S
INDIANAPOLIS   CLEAR     29  19  66 SE6       30.24R WCI  23

$$
MIZ043>046-050>051-056>058-064>065-071>073-077>080-160600-
SOUTHWEST LOWER MICHIGAN

CITY           SKY/WX    TMP DP  RH WIND       PRES   REMARKS
BATTLE CREEK   CLEAR     25  13  60 CALM      30.24R
BENTON HARBOR  CLEAR     24  16  71 E5        30.24R WCI  18
COLDWATER*     CLEAR     23  16  74 CALM      30.24S
HILLSDALE*     CLEAR     22  10  58 CALM      30.23R
HOLLAND        CLEAR     26  17  68 SE5       30.24S WCI  20
GRAND RAPIDS   CLEAR     27  16  63 SW3       30.24R
KALAMAZOO      CLEAR     26  15  63 CALM      30.24R
STURGIS*       CLEAR     25  14  63 CALM      30.23S
THREE RIVERS*  FAIR      27  17  65 CALM      30.25R

$$
OHZ001>008-015>018-024>025-160600-
NORTHWEST OHIO

CITY           SKY/WX    TMP DP  RH WIND       PRES   REMARKS
WAUSEON*       FAIR      25  14  63 CALM      30.26S
DEFIANCE       CLEAR     24  14  65 CALM      30.26S
FINDLAY        CLEAR     27  14  58 NW3       30.25R
TOLEDO EXPRESS CLEAR     25  13  60 CALM      30.26R
TOLEDO METCALF CLEAR     26  14  60 W6        30.27R WCI  19
LIMA           CLEAR     28  14  55 N3        30.24F

$$
&&



USA.gov is the U.S. government's official web portal to all federal, state and local government web resources and services.